Time,TemperatureF,DewpointF,PressureIn,WindDirection,WindDirectionDegrees,WindSpeedMPH,WindSpeedGustMPH,Humidity,HourlyPrecipIn,Conditions,Clouds,dailyrainin,SoftwareType,DateUTC
2013-08-09 00:01:00,74.0,67.0,30.06,North,-999,-999.0,-999.0,79,-99.99,,,-99.99,,2013-08-09 04:01:00,
2013-08-09 00:12:00,74.0,67.0,30.06,North,-999,-999.0,-999.0,79,-99.99,,,-99.99,,2013-08-09 04:12:00,
2013-08-09 00:22:00,75.0,67.0,30.06,North,-999,-999.0,-999.0,76,-99.99,,,-99.99,,2013-08-09 04:22:00,
2013-08-09 00:33:00,73.0,67.0,30.06,North,-999,-999.0,-999.0,79,-99.99,,,-99.99,,2013-08-09 04:33:00,
2013-08-09 00:43:00,73.0,67.0,30.06,North,-999,-999.0,-999.0,79,-99.99,,,-99.99,,2013-08-09 04:43:00,
2013-08-09 00:53:00,74.0,67.0,30.06,North,-999,-999.0,-999.0,78,-99.99,,,-99.99,,2013-08-09 04:53:00,
2013-08-09 01:02:00,74.0,67.0,30.05,North,-999,-999.0,-999.0,77,-99.99,,,-99.99,,2013-08-09 05:02:00,
2013-08-09 01:12:00,74.0,67.0,30.05,North,-999,-999.0,-999.0,77,-99.99,,,-99.99,,2013-08-09 05:12:00,
2013-08-09 01:22:00,75.0,67.0,30.05,North,-999,-999.0,-999.0,75,-99.99,,,-99.99,,2013-08-09 05:22:00,
2013-08-09 01:33:00,75.0,67.0,30.05,North,-999,-999.0,-999.0,75,-99.99,,,-99.99,,2013-08-09 05:33:00,
2013-08-09 01:52:00,74.0,67.0,30.05,North,-999,-999.0,-999.0,77,-99.99,,,-99.99,,2013-08-09 05:52:00,
2013-08-09 02:11:00,73.0,66.0,30.05,North,-999,-999.0,-999.0,78,-99.99,,,-99.99,,2013-08-09 06:11:00,
2013-08-09 02:22:00,74.0,66.0,30.05,North,-999,-999.0,-999.0,76,-99.99,,,-99.99,,2013-08-09 06:22:00,
2013-08-09 02:32:00,73.0,66.0,30.04,North,-999,-999.0,-999.0,77,-99.99,,,-99.99,,2013-08-09 06:32:00,
2013-08-09 02:43:00,73.0,66.0,30.04,North,-999,-999.0,-999.0,77,-99.99,,,-99.99,,2013-08-09 06:43:00,
2013-08-09 02:52:00,74.0,66.0,30.04,North,-999,-999.0,-999.0,76,-99.99,,,-99.99,,2013-08-09 06:52:00,
2013-08-09 03:01:00,72.0,65.0,30.03,North,-999,-999.0,-999.0,78,-99.99,,,-99.99,,2013-08-09 07:01:00,
2013-08-09 03:12:00,72.0,65.0,30.03,North,-999,-999.0,-999.0,78,-99.99,,,-99.99,,2013-08-09 07:12:00,
2013-08-09 03:22:00,72.0,65.0,30.03,North,-999,-999.0,-999.0,78,-99.99,,,-99.99,,2013-08-09 07:22:00,
2013-08-09 03:33:00,72.0,65.0,30.03,North,-999,-999.0,-999.0,79,-99.99,,,-99.99,,2013-08-09 07:33:00,
2013-08-09 03:53:00,74.0,65.0,30.03,North,-999,-999.0,-999.0,75,-99.99,,,-99.99,,2013-08-09 07:53:00,
2013-08-09 04:02:00,73.0,65.0,30.02,North,-999,-999.0,-999.0,76,-99.99,,,-99.99,,2013-08-09 08:02:00,
2013-08-09 04:12:00,73.0,65.0,30.02,North,-999,-999.0,-999.0,76,-99.99,,,-99.99,,2013-08-09 08:12:00,
2013-08-09 04:22:00,74.0,65.0,30.02,North,-999,-999.0,-999.0,74,-99.99,,,-99.99,,2013-08-09 08:22:00,
2013-08-09 04:32:00,73.0,65.0,30.02,North,-999,-999.0,-999.0,75,-99.99,,,-99.99,,2013-08-09 08:32:00,
2013-08-09 04:53:00,72.0,65.0,30.02,North,-999,-999.0,-999.0,77,-99.99,,,-99.99,,2013-08-09 08:53:00,
2013-08-09 05:12:00,74.0,66.0,30.02,North,-999,-999.0,-999.0,74,-99.99,,,-99.99,,2013-08-09 09:12:00,
2013-08-09 05:22:00,73.0,66.0,30.02,North,-999,-999.0,-999.0,77,-99.99,,,-99.99,,2013-08-09 09:22:00,
2013-08-09 05:43:00,73.0,66.0,30.01,North,-999,-999.0,-999.0,76,-99.99,,,-99.99,,2013-08-09 09:43:00,
2013-08-09 05:52:00,73.0,66.0,30.01,North,-999,-999.0,-999.0,76,-99.99,,,-99.99,,2013-08-09 09:52:00,
2013-08-09 06:01:00,73.0,65.0,30.01,North,-999,-999.0,-999.0,77,-99.99,,,-99.99,,2013-08-09 10:01:00,
2013-08-09 06:12:00,73.0,65.0,30.01,North,-999,-999.0,-999.0,77,-99.99,,,-99.99,,2013-08-09 10:12:00,
2013-08-09 06:22:00,73.0,66.0,30.02,North,-999,-999.0,-999.0,77,-99.99,,,-99.99,,2013-08-09 10:22:00,
2013-08-09 06:32:00,73.0,66.0,30.02,North,-999,-999.0,-999.0,77,-99.99,,,-99.99,,2013-08-09 10:32:00,
2013-08-09 06:53:00,74.0,66.0,30.02,North,-999,-999.0,-999.0,76,-99.99,,,-99.99,,2013-08-09 10:53:00,
2013-08-09 07:02:00,72.0,66.0,30.02,North,-999,-999.0,-999.0,81,-99.99,,,-99.99,,2013-08-09 11:02:00,
2013-08-09 07:11:00,72.0,66.0,30.02,North,-999,-999.0,-999.0,81,-99.99,,,-99.99,,2013-08-09 11:11:00,
2013-08-09 07:22:00,74.0,67.0,30.02,North,-999,-999.0,-999.0,77,-99.99,,,-99.99,,2013-08-09 11:22:00,
2013-08-09 07:43:00,73.0,67.0,30.02,North,-999,-999.0,-999.0,81,-99.99,,,-99.99,,2013-08-09 11:43:00,
2013-08-09 07:53:00,73.0,67.0,30.02,North,-999,-999.0,-999.0,81,-99.99,,,-99.99,,2013-08-09 11:53:00,
2013-08-09 08:02:00,73.0,67.0,30.02,North,-999,-999.0,-999.0,82,-99.99,,,-99.99,,2013-08-09 12:02:00,
2013-08-09 08:12:00,73.0,67.0,30.02,North,-999,-999.0,-999.0,82,-99.99,,,-99.99,,2013-08-09 12:12:00,
2013-08-09 08:22:00,72.0,67.0,30.02,North,-999,-999.0,-999.0,83,-99.99,,,-99.99,,2013-08-09 12:22:00,
2013-08-09 08:32:00,73.0,68.0,30.02,North,-999,-999.0,-999.0,83,-99.99,,,-99.99,,2013-08-09 12:32:00,
2013-08-09 08:43:00,73.0,68.0,30.02,North,-999,-999.0,-999.0,83,-99.99,,,-99.99,,2013-08-09 12:43:00,
2013-08-09 08:52:00,72.0,68.0,30.01,North,-999,-999.0,-999.0,85,-99.99,,,-99.99,,2013-08-09 12:52:00,
2013-08-09 09:01:00,73.0,68.0,30.01,North,-999,-999.0,-999.0,81,-99.99,,,-99.99,,2013-08-09 13:01:00,
2013-08-09 09:12:00,73.0,68.0,30.01,North,-999,-999.0,-999.0,81,-99.99,,,-99.99,,2013-08-09 13:12:00,
2013-08-09 09:23:00,73.0,68.0,30.00,North,-999,-999.0,-999.0,84,-99.99,,,-99.99,,2013-08-09 13:23:00,
2013-08-09 09:52:00,74.0,69.0,29.99,North,-999,-999.0,-999.0,82,-99.99,,,-99.99,,2013-08-09 13:52:00,
2013-08-09 10:11:00,72.0,67.0,29.99,North,-999,-999.0,-999.0,84,-99.99,,,-99.99,,2013-08-09 14:11:00,
2013-08-09 10:53:00,74.0,69.0,29.96,North,-999,-999.0,-999.0,83,-99.99,,,-99.99,,2013-08-09 14:53:00,
2013-08-09 11:02:00,73.0,68.0,29.96,North,-999,-999.0,-999.0,84,-99.99,,,-99.99,,2013-08-09 15:02:00,
2013-08-09 11:12:00,73.0,68.0,29.96,North,-999,-999.0,-999.0,84,-99.99,,,-99.99,,2013-08-09 15:12:00,
2013-08-09 11:53:00,74.0,68.0,29.95,North,-999,-999.0,-999.0,84,-99.99,,,-99.99,,2013-08-09 15:53:00,
2013-08-09 12:02:00,74.0,68.0,29.94,North,-999,-999.0,-999.0,82,-99.99,,,-99.99,,2013-08-09 16:02:00,
2013-08-09 12:11:00,74.0,68.0,29.94,North,-999,-999.0,-999.0,82,-99.99,,,-99.99,,2013-08-09 16:11:00,
2013-08-09 12:22:00,74.0,69.0,29.93,North,-999,-999.0,-999.0,84,-99.99,,,-99.99,,2013-08-09 16:22:00,
2013-08-09 12:32:00,73.0,68.0,29.93,North,-999,-999.0,-999.0,83,-99.99,,,-99.99,,2013-08-09 16:32:00,
2013-08-09 12:53:00,74.0,69.0,29.92,North,-999,-999.0,-999.0,84,-99.99,,,-99.99,,2013-08-09 16:53:00,
2013-08-09 13:02:00,74.0,69.0,29.92,North,-999,-999.0,-999.0,84,-99.99,,,-99.99,,2013-08-09 17:02:00,
2013-08-09 13:11:00,73.0,68.0,29.91,North,-999,-999.0,-999.0,85,-99.99,,,-99.99,,2013-08-09 17:11:00,
2013-08-09 13:22:00,74.0,69.0,29.91,North,-999,-999.0,-999.0,84,-99.99,,,-99.99,,2013-08-09 17:22:00,
2013-08-09 13:43:00,73.0,68.0,29.90,North,-999,-999.0,-999.0,84,-99.99,,,-99.99,,2013-08-09 17:43:00,
2013-08-09 13:52:00,74.0,69.0,29.89,North,-999,-999.0,-999.0,83,-99.99,,,-99.99,,2013-08-09 17:52:00,
2013-08-09 14:01:00,74.0,69.0,29.89,North,-999,-999.0,-999.0,83,-99.99,,,-99.99,,2013-08-09 18:01:00,
2013-08-09 14:11:00,72.0,68.0,29.88,North,-999,-999.0,-999.0,85,-99.99,,,-99.99,,2013-08-09 18:11:00,
2013-08-09 14:22:00,73.0,69.0,29.87,North,-999,-999.0,-999.0,86,-99.99,,,-99.99,,2013-08-09 18:22:00,
2013-08-09 14:43:00,72.0,68.0,29.87,North,-999,-999.0,-999.0,85,-99.99,,,-99.99,,2013-08-09 18:43:00,
2013-08-09 14:53:00,72.0,68.0,29.86,North,-999,-999.0,-999.0,86,-99.99,,,-99.99,,2013-08-09 18:53:00,
2013-08-09 15:02:00,71.0,67.0,29.84,North,-999,-999.0,-999.0,86,-99.99,,,-99.99,,2013-08-09 19:02:00,
2013-08-09 15:11:00,71.0,67.0,29.84,North,-999,-999.0,-999.0,86,-99.99,,,-99.99,,2013-08-09 19:11:00,
2013-08-09 15:32:00,71.0,67.0,29.83,North,-999,-999.0,-999.0,86,-99.99,,,-99.99,,2013-08-09 19:32:00,
2013-08-09 15:43:00,71.0,67.0,29.82,North,-999,-999.0,-999.0,87,-99.99,,,-99.99,,2013-08-09 19:43:00,
2013-08-09 15:52:00,71.0,67.0,29.80,North,-999,-999.0,-999.0,87,-99.99,,,-99.99,,2013-08-09 19:52:00,
2013-08-09 16:11:00,71.0,68.0,29.80,North,-999,-999.0,-999.0,88,-99.99,,,-99.99,,2013-08-09 20:11:00,
2013-08-09 16:22:00,72.0,69.0,29.79,North,-999,-999.0,-999.0,87,-99.99,,,-99.99,,2013-08-09 20:22:00,
2013-08-09 16:52:00,72.0,68.0,29.81,North,-999,-999.0,-999.0,88,-99.99,,,-99.99,,2013-08-09 20:52:00,
2013-08-09 17:01:00,72.0,68.0,29.81,North,-999,-999.0,-999.0,88,-99.99,,,-99.99,,2013-08-09 21:01:00,
2013-08-09 17:12:00,73.0,69.0,29.80,North,-999,-999.0,-999.0,88,-99.99,,,-99.99,,2013-08-09 21:12:00,
2013-08-09 17:22:00,72.0,69.0,29.80,North,-999,-999.0,-999.0,88,-99.99,,,-99.99,,2013-08-09 21:22:00,
2013-08-09 17:43:00,73.0,69.0,29.80,North,-999,-999.0,-999.0,88,-99.99,,,-99.99,,2013-08-09 21:43:00,
2013-08-09 17:52:00,73.0,70.0,29.79,North,-999,-999.0,-999.0,88,-99.99,,,-99.99,,2013-08-09 21:52:00,
2013-08-09 18:02:00,74.0,70.0,29.79,North,-999,-999.0,-999.0,87,-99.99,,,-99.99,,2013-08-09 22:02:00,
2013-08-09 18:11:00,74.0,70.0,29.79,North,-999,-999.0,-999.0,87,-99.99,,,-99.99,,2013-08-09 22:11:00,
2013-08-09 18:22:00,74.0,70.0,29.79,North,-999,-999.0,-999.0,86,-99.99,,,-99.99,,2013-08-09 22:22:00,
2013-08-09 18:42:00,74.0,70.0,29.79,North,-999,-999.0,-999.0,86,-99.99,,,-99.99,,2013-08-09 22:42:00,
2013-08-09 18:52:00,74.0,70.0,29.79,North,-999,-999.0,-999.0,87,-99.99,,,-99.99,,2013-08-09 22:52:00,
2013-08-09 19:02:00,74.0,70.0,29.79,North,-999,-999.0,-999.0,87,-99.99,,,-99.99,,2013-08-09 23:02:00,
2013-08-09 19:11:00,75.0,71.0,29.79,North,-999,-999.0,-999.0,86,-99.99,,,-99.99,,2013-08-09 23:11:00,
2013-08-09 19:22:00,75.0,71.0,29.79,North,-999,-999.0,-999.0,86,-99.99,,,-99.99,,2013-08-09 23:22:00,
2013-08-09 19:32:00,75.0,71.0,29.79,North,-999,-999.0,-999.0,86,-99.99,,,-99.99,,2013-08-09 23:32:00,
2013-08-09 19:43:00,75.0,71.0,29.80,North,-999,-999.0,-999.0,86,-99.99,,,-99.99,,2013-08-09 23:43:00,
2013-08-09 19:52:00,75.0,71.0,29.80,North,-999,-999.0,-999.0,86,-99.99,,,-99.99,,2013-08-09 23:52:00,
2013-08-09 20:01:00,74.0,70.0,29.80,North,-999,-999.0,-999.0,87,-99.99,,,-99.99,,2013-08-10 00:01:00,
2013-08-09 20:11:00,74.0,70.0,29.80,North,-999,-999.0,-999.0,87,-99.99,,,-99.99,,2013-08-10 00:11:00,
2013-08-09 20:22:00,74.0,70.0,29.80,North,-999,-999.0,-999.0,87,-99.99,,,-99.99,,2013-08-10 00:22:00,
2013-08-09 20:43:00,74.0,70.0,29.81,North,-999,-999.0,-999.0,87,-99.99,,,-99.99,,2013-08-10 00:43:00,
2013-08-09 20:53:00,74.0,70.0,29.82,North,-999,-999.0,-999.0,87,-99.99,,,-99.99,,2013-08-10 00:53:00,
2013-08-09 21:02:00,74.0,70.0,29.82,North,-999,-999.0,-999.0,87,-99.99,,,-99.99,,2013-08-10 01:02:00,
2013-08-09 21:11:00,74.0,70.0,29.82,North,-999,-999.0,-999.0,87,-99.99,,,-99.99,,2013-08-10 01:11:00,
2013-08-09 21:22:00,74.0,70.0,29.83,North,-999,-999.0,-999.0,86,-99.99,,,-99.99,,2013-08-10 01:22:00,
2013-08-09 21:32:00,73.0,69.0,29.83,North,-999,-999.0,-999.0,87,-99.99,,,-99.99,,2013-08-10 01:32:00,
2013-08-09 21:42:00,73.0,69.0,29.83,North,-999,-999.0,-999.0,87,-99.99,,,-99.99,,2013-08-10 01:42:00,
2013-08-09 21:52:00,74.0,70.0,29.83,North,-999,-999.0,-999.0,87,-99.99,,,-99.99,,2013-08-10 01:52:00,
2013-08-09 22:03:00,73.0,69.0,29.83,North,-999,-999.0,-999.0,87,-99.99,,,-99.99,,2013-08-10 02:03:00,
2013-08-09 22:11:00,73.0,69.0,29.83,North,-999,-999.0,-999.0,87,-99.99,,,-99.99,,2013-08-10 02:11:00,
2013-08-09 22:21:00,72.0,69.0,29.82,North,-999,-999.0,-999.0,87,-99.99,,,-99.99,,2013-08-10 02:21:00,
2013-08-09 22:32:00,72.0,69.0,29.82,North,-999,-999.0,-999.0,88,-99.99,,,-99.99,,2013-08-10 02:32:00,
2013-08-09 22:42:00,72.0,69.0,29.82,North,-999,-999.0,-999.0,88,-99.99,,,-99.99,,2013-08-10 02:42:00,
2013-08-09 22:52:00,73.0,69.0,29.83,North,-999,-999.0,-999.0,88,-99.99,,,-99.99,,2013-08-10 02:52:00,
2013-08-09 23:01:00,72.0,69.0,29.83,North,-999,-999.0,-999.0,88,-99.99,,,-99.99,,2013-08-10 03:01:00,
2013-08-09 23:11:00,72.0,69.0,29.83,North,-999,-999.0,-999.0,88,-99.99,,,-99.99,,2013-08-10 03:11:00,
2013-08-09 23:22:00,73.0,69.0,29.83,North,-999,-999.0,-999.0,87,-99.99,,,-99.99,,2013-08-10 03:22:00,
2013-08-09 23:32:00,72.0,68.0,29.83,North,-999,-999.0,-999.0,87,-99.99,,,-99.99,,2013-08-10 03:32:00,
2013-08-09 23:42:00,72.0,68.0,29.83,North,-999,-999.0,-999.0,87,-99.99,,,-99.99,,2013-08-10 03:42:00,
2013-08-09 23:52:00,72.0,69.0,29.83,North,-999,-999.0,-999.0,87,-99.99,,,-99.99,,2013-08-10 03:52:00,